www.pogodaiklimat.ru

Погода и климат >> Архив погоды >> Япония >> Якусима


ПОГОДА на Якусиме

  • Прогноз погоды на Якусиме
  • Монитор погоды на Якусиме

АРХИВ ПОГОДЫ на Якусиме

Время (UTC), дата Ветер
(напр.,м/с)
 
Видим.   Явления Облачность Т
(С)
Тd
(С)
f
(%)
Тe
(С)
Тes
(С)
Комфортность P
(гПа)
Po
(гПа)
Тmin
(С)
Tmax
(С)
R
(мм)
R24
(мм)
S
(см)
04 15.08 ЮЗ 4 13 км в посл. час дождь н/о +28.0 +24.8 83 +40 +40 очень
душно
992.2 988.0
06 15.08 Ю 2 10 км {дождь} н/о +28.7 +25.5 83 +42 +42 опасность
перегрева
992.9 988.7 22
08 15.08 СЗ 1 9000 м в посл. час дождь н/о +28.5 +25.5 84 +42 +42 опасность
перегрева
993.8 989.6
09 15.08 СВ 1 13 км {дождь} н/о +27.4 +24.3 83 +38 +38 очень
душно
994.6 990.4
10 15.08 ЮЗ 1 12 км н/о +27.5 +22.9 76 +37 +37 очень
душно
995.1 990.9
11 15.08 З 2 9000 м слаб. дождь н/о +25.8 +22.5 82 +34 +34 очень
душно
995.9 991.6
12 15.08 З 2 8000 м в посл. час дождь н/о +25.3 +23.2 88 +34 +34 очень
душно
996.9 992.6 +30.0 22
13 15.08 Ю 1 10 км н/о +25.6 +23.3 87 +34 +34 очень
душно
997.6 993.3
14 15.08 В 4 9000 м дымка н/о +27.5 +24.0 81 +38 +38 очень
душно
997.4 993.2
15 15.08 Ю 1 10 км н/о +26.8 +23.7 83 +37 +37 очень
душно
998.0 993.7
16 15.08 ЮЗ 3 8000 м дымка н/о +25.7 +23.9 90 +35 +35 очень
душно
998.0 993.7
17 15.08 ЮЗ 2 10 км н/о +25.7 +23.4 87 +35 +35 очень
душно
998.5 994.2
18 15.08 ЮВ 2 11 км н/о +25.3 +23.7 91 +34 +34 очень
душно
998.8 994.5
19 15.08 ЮЗ 2 9000 м дымка н/о +24.9 +23.3 91 +33 +33 очень
душно
999.1 994.8
20 15.08 Ю 1 9000 м дымка н/о +24.6 +23.2 92 +33 +33 очень
душно
999.5 995.2
21 15.08 ЮЗ 2 10 км н/о +25.3 +23.5 90 +34 +34 очень
душно
1000.1 995.8
22 15.08 В 5 8000 м дымка н/о +28.2 +24.6 81 +40 +40 очень
душно
1000.2 996.0
23 15.08 В 4 12 км н/о +29.2 +24.8 77 +42 +42 опасность
перегрева
1000.7 996.5
00 16.08 В 5 11 км н/о +29.9 +24.8 74 +43 +43 опасность
перегрева
1001.3 997.1 +23.9
01 16.08 В 4 13 км н/о +30.5 +24.9 72 +44 +44 опасность
перегрева
1001.5 997.3
02 16.08 В 4 10 км н/о +30.5 +25.8 76 +45 +45 опасность
перегрева
1001.6 997.4
03 16.08 В 4 14 км н/о +30.8 +25.4 73 +45 +45 опасность
перегрева
1001.5 997.3
04 16.08 В 3 10 км н/о +29.6 +25.1 77 +43 +43 опасность
перегрева
1001.8 997.6
05 16.08 В 1 7000 м дым н/о +30.4 +25.0 73 +44 +44 опасность
перегрева
1001.7 997.5
06 16.08 ЮВ 3 н/о н/о +30.1 +24.7 73 +43 +43 опасность
перегрева
1001.6 997.4
07 16.08 Ю 4 16 км н/о +29.9 +25.2 76 +43 +43 опасность
перегрева
1001.6 997.4
08 16.08 ЮВ 3 12 км н/о +29.2 +25.0 78 +42 +42 опасность
перегрева
1001.7 997.5
09 16.08 В 2 9000 м дымка н/о +28.5 +25.3 83 +42 +42 опасность
перегрева
1001.9 997.6
11 16.08 СВ 1 8000 м дымка н/о +26.2 +25.0 93 +37 +37 очень
душно
1003.3 999.0
12 16.08 Ю 3 8000 м дымка н/о +26.2 +24.2 89 +36 +36 очень
душно
1003.9 999.6 +31.1
13 16.08 ЮЗ 3 7000 м дымка н/о +26.0 +24.2 90 +36 +36 очень
душно
1004.0 999.7
15 16.08 ЮЗ 3 9000 м дымка н/о +25.7 +23.6 88 +35 +35 очень
душно
1003.9 999.6
16 16.08 З 3 8000 м дымка н/о +24.8 +23.1 90 +33 +33 очень
душно
1003.9 999.6
17 16.08 ЮЗ 3 7000 м дымка н/о +24.5 +23.5 94 +33 +33 очень
душно
1004.1 999.8
18 16.08 ЮЗ 2 7000 м дымка н/о +24.4 +23.4 94 +33 +33 очень
душно
1004.1 999.8
19 16.08 Ю 2 5000 м дымка н/о +24.1 +23.4 96 +32 +32 очень
душно
1004.0 999.7
20 16.08 ЮЗ 2 6000 м дымка н/о +24.0 +23.5 97 +32 +32 очень
душно
1004.2 999.9
21 16.08 ЮЗ 2 5000 м дымка н/о +24.2 +23.4 95 +32 +32 очень
душно
1004.6 1000.3
22 16.08 Ю 3 8000 м дымка н/о +26.5 +24.9 91 +38 +38 очень
душно
1004.7 1000.4
23 16.08 штиль 0 9000 м дымка н/о +28.1 +24.5 81 +40 +40 очень
душно
1005.0 1000.7
00 17.08 В 2 6000 м дымка н/о +28.5 +25.3 83 +42 +42 опасность
перегрева
1005.2 1000.9 +23.9
01 17.08 В 2 8000 м дымка н/о +29.0 +25.4 81 +43 +43 опасность
перегрева
1005.2 1000.9
02 17.08 В 3 11 км в посл. час дождь н/о +29.8 +25.8 79 +44 +44 опасность
перегрева
1005.4 1001.2
03 17.08 ЮВ 4 8000 м дымка {дождь} н/о +29.4 +25.6 80 +43 +43 опасность
перегрева
1005.3 1001.0
04 17.08 ЮВ 3 9000 м дымка н/о +28.9 +26.1 85 +44 +44 опасность
перегрева
1005.0 1000.7
05 17.08 ЮВ 3 7000 м дымка н/о +28.5 +25.9 86 +43 +43 опасность
перегрева
1004.8 1000.5
06 17.08 Ю 2 7000 м дымка {дождь} н/о +28.6 +26.0 86 +43 +43 опасность
перегрева
1004.4 1000.1 0.0
07 17.08 Ю 3 7000 м в посл. час дождь н/о +28.6 +26.0 86 +43 +43 опасность
перегрева
1004.4 1000.1
08 17.08 ЮВ 2 7000 м дымка н/о +28.1 +25.9 88 +42 +42 опасность
перегрева
1004.3 1000.0
09 17.08 Ю 2 6000 м дымка {дождь} н/о +27.8 +25.2 86 +40 +40 очень
душно
1004.4 1000.1
10 17.08 Ю 3 6000 м дымка н/о +26.7 +25.5 93 +39 +39 очень
душно
1004.5 1000.2
13 17.08 ЮЗ 2 6000 м дымка н/о +25.0 +22.5 86 +33 +33 очень
душно
1005.9 1001.6
14 17.08 ЮЗ 3 12 км н/о +24.7 +21.8 84 +32 +32 очень
душно
1006.0 1001.7
15 17.08 ЮЗ 2 6000 м дымка н/о +24.6 +23.0 91 +33 +33 очень
душно
1006.0 1001.7
16 17.08 ЮЗ 2 5000 м дымка н/о +24.4 +23.6 95 +33 +33 очень
душно
1005.9 1001.6
06 19.08 Ю 5 11 км слаб. дождь н/о +29.8 +27.0 85 +47 +47 опасность
перегрева
1005.9 1001.7 2
09 19.08 Ю 3 8000 м в посл. час дождь н/о +27.7 +26.8 95 +43 +43 опасность
перегрева
1006.3 1002.0
10 19.08 Ю 5 8000 м слаб. дождь н/о +27.5 +27.2 98 +43 +43 опасность
перегрева
1006.6 1002.3
11 19.08 Ю 5 6000 м в посл. час дождь н/о +27.3 +27.0 98 +43 +43 опасность
перегрева
1006.8 1002.5
12 19.08 Ю 5 7000 м дымка {дождь} н/о +27.4 +27.2 99 +43 +43 опасность
перегрева
1007.4 1003.1 +29.9 5
13 19.08 Ю 5 8000 м в посл. час дождь н/о +27.3 +27.0 98 +43 +43 опасность
перегрева
1008.0 1003.7
14 19.08 Ю 5 7000 м в посл. час дождь н/о +27.5 +27.2 98 +43 +43 опасность
перегрева
1007.9 1003.6
15 19.08 Ю 6 10 км в посл. час дождь н/о +27.4 +26.9 97 +43 +43 опасность
перегрева
1008.3 1004.0
16 19.08 Ю 6 7000 м в посл. час дождь н/о +27.4 +27.1 98 +43 +43 опасность
перегрева
1007.7 1003.4
17 19.08 Ю 6 6000 м слаб. дождь н/о +27.3 +26.6 96 +42 +42 опасность
перегрева
1007.4 1003.1
18 19.08 Ю 7 3000 м дождь н/о +26.8 +26.1 96 +40 +40 очень
душно
1007.4 1003.1 6
19 19.08 Ю 7 10 км в посл. час дождь н/о +27.0 +26.0 94 +40 +40 очень
душно
1007.3 1003.0
20 19.08 Ю 7 10 км в посл. час дождь н/о +27.0 +26.0 94 +40 +40 очень
душно
1007.7 1003.4
21 19.08 Ю 7 11 км {ливн. осадки, дождь} н/о +27.3 +25.7 91 +40 +40 очень
душно
1008.3 1004.0
22 19.08 Ю 6 12 км в посл. час дождь н/о +27.5 +25.7 90 +41 +41 опасность
перегрева
1008.9 1004.6
23 19.08 Ю 6 14 км н/о +27.9 +25.5 87 +41 +41 опасность
перегрева
1009.3 1005.0
00 20.08 Ю 6 13 км в посл. час дождь {ливн. осадки} н/о +28.2 +26.8 92 +44 +44 опасность
перегрева
1009.8 1005.5 +26.8 7
01 20.08 Ю 4 5000 м слаб. дождь н/о +28.1 +26.9 93 +44 +44 опасность
перегрева
1010.3 1006.0
02 20.08 Ю 7 14 км в посл. час дождь н/о +29.6 +26.8 85 +46 +46 опасность
перегрева
1010.0 1005.7
03 20.08 Ю 7 14 км {дождь} н/о +29.9 +26.5 82 +46 +46 опасность
перегрева
1010.0 1005.7
04 20.08 Ю 5 9000 м в посл. час дождь н/о +28.1 +26.7 92 +44 +44 опасность
перегрева
1009.7 1005.4
05 20.08 Ю 7 9000 м в посл. час дождь н/о +28.8 +26.6 88 +45 +45 опасность
перегрева
1009.0 1004.7
06 20.08 Ю 7 16 км {дождь} н/о +29.4 +26.6 85 +45 +45 опасность
перегрева
1008.8 1004.5 0.5
07 20.08 Ю 6 14 км н/о +29.3 +26.5 85 +45 +45 опасность
перегрева
1009.0 1004.7
08 20.08 Ю 4 16 км н/о +29.2 +26.6 86 +45 +45 опасность
перегрева
1009.0 1004.7
10 20.08 Ю 4 6000 м слаб. дождь н/о +26.9 +26.4 97 +41 +41 опасность
перегрева
1010.2 1005.9
11 20.08 Ю 3 12 км в посл. час дождь н/о +26.6 +25.9 96 +40 +40 очень
душно
1010.6 1006.3
12 20.08 Ю 4 16 км в посл. час дождь н/о +26.5 +26.0 97 +40 +40 очень
душно
1011.2 1006.9 +31.0 2
13 20.08 Ю 5 15 км в посл. час дождь н/о +26.4 +25.9 97 +39 +39 очень
душно
1011.3 1007.0
14 20.08 Ю 5 14 км н/о +26.5 +25.6 95 +39 +39 очень
душно
1011.1 1006.8
15 20.08 Ю 6 16 км {дождь} н/о +26.3 +25.3 94 +38 +38 очень
душно
1011.0 1006.7
16 20.08 Ю 5 22 км н/о +26.2 +24.4 90 +37 +37 очень
душно
1010.5 1006.2
17 20.08 Ю 5 16 км н/о +26.2 +23.5 85 +36 +36 очень
душно
1010.2 1005.9
18 20.08 Ю 4 24 км {дождь} н/о +26.1 +22.4 80 +34 +34 очень
душно
1010.0 1005.7 0.0
20 20.08 Ю 4 23 км н/о +25.1 +22.2 84 +33 +33 очень
душно
1009.9 1005.6
22 20.08 Ю 5 25 км н/о +27.1 +22.7 77 +36 +36 очень
душно
1010.7 1006.4
23 20.08 Ю 4 16 км н/о +28.4 +24.6 80 +40 +40 очень
душно
1010.9 1006.6
00 21.08 Ю 6 24 км н/о +29.0 +24.8 78 +41 +41 опасность
перегрева
1010.8 1006.5 +23.8 0.0
01 21.08 Ю 6 22 км н/о +29.5 +25.0 77 +43 +43 опасность
перегрева
1011.1 1006.8
02 21.08 Ю 6 21 км н/о +29.5 +25.3 78 +43 +43 опасность
перегрева
1011.2 1006.9
03 21.08 Ю 5 24 км н/о +29.8 +25.3 77 +44 +44 опасность
перегрева
1011.0 1006.7
05 21.08 Ю 5 19 км н/о +29.6 +25.8 80 +44 +44 опасность
перегрева
1010.5 1006.2
06 21.08 ЮВ 6 16 км н/о +29.6 +25.8 80 +44 +44 опасность
перегрева
1010.2 1005.9
07 21.08 Ю 5 21 км н/о +29.1 +25.7 82 +43 +43 опасность
перегрева
1010.2 1005.9
09 21.08 Ю 4 19 км н/о +27.5 +25.0 86 +39 +39 очень
душно
1010.6 1006.3
10 21.08 Ю 4 19 км н/о +26.9 +24.9 89 +39 +39 очень
душно
1010.7 1006.4
11 21.08 Ю 3 22 км н/о +26.9 +24.8 88 +38 +38 очень
душно
1011.3 1007.0
12 21.08 Ю 4 22 км н/о +26.6 +24.6 89 +38 +38 очень
душно
1011.8 1007.5 +30.3
13 21.08 Ю 4 22 км н/о +26.8 +24.5 87 +38 +38 очень
душно
1011.8 1007.5
15 21.08 Ю 4 22 км в посл. час дождь н/о +26.6 +24.6 89 +38 +38 очень
душно
1011.6 1007.3
16 21.08 Ю 4 24 км н/о +26.8 +23.9 84 +37 +37 очень
душно
1011.2 1006.9
17 21.08 Ю 3 18 км в посл. час дождь н/о +25.5 +24.3 93 +35 +35 очень
душно
1010.9 1006.6
18 21.08 Ю 3 19 км {дождь} н/о +25.2 +23.4 90 +34 +34 очень
душно
1010.4 1006.1 1
19 21.08 Ю 3 20 км н/о +25.9 +23.4 86 +35 +35 очень
душно
1010.5 1006.2
20 21.08 Ю 4 25 км н/о +26.1 +23.6 86 +35 +35 очень
душно
1010.2 1005.9
22 21.08 Ю 3 25 км н/о +27.3 +25.1 88 +39 +39 очень
душно
1010.7 1006.4
23 21.08 Ю 5 21 км н/о +27.2 +25.0 88 +39 +39 очень
душно
1010.8 1006.5
00 22.08 Ю 5 20 км {дождь} н/о +29.6 +24.9 76 +42 +42 опасность
перегрева
1011.0 1006.7 +25.1 1
01 22.08 С 3 24 км н/о +28.6 +25.4 83 +42 +42 опасность
перегрева
1011.4 1007.1
02 22.08 С 1 5000 м слаб. дождь н/о +27.3 +24.8 86 +39 +39 очень
душно
1011.4 1007.1

 

Местоположение метеостанции Якусима (Япония): широта 30.38 долгота 130.66 высота над уровнем моря 38 м.

В архиве по умолчанию представлена погода на Якусиме за последнюю неделю. Архивные данные за месяц целиком и за предыдущие месяцы, начиная с января 2011 года, Вы можете получить, выбрав интересующий диапазон дат из раскрывающегося списка и нажав кнопку "Ввод!".


*Определитесь, кто Вы:
робот инопланетянин человек

Внимание! Время в таблицах - всемирное. Для получения местного времени необходимо прибавить поправку, которая равна 9 ч.

Смотрите также архив погоды в соседних городах и на ближайших метеорологических станциях:

Погода на Танегасиме (Япония) (50 км)
Погода в Макурадзаки (Япония) (105 км)
Погода в Кагосиме (Япония) (131 км)
Погода в Абурацу (Япония) (151 км)
Погода в Мияконодзё (Япония) (155 км)
Погода в Ушибуке (Япония) (161 км)
Погода в Миядзаки (Япония) (187 км)
Погода в Акуне (Япония) (189 км)
Погода в Хитоёси (Япония) (205 км)
Погода в Назе (Япония) (249 км)

Пояснения к столбцам:

Ветер - указаны скорость ветра в м/с - средняя за 10 мин, порывы в срок и между сроками (в фигурных скобках) и направление, откуда дует ветер: С - северный, СВ - северо-восточный, В - восточный, ЮВ - юго-восточный, Ю - южный, ЮЗ - юго-западный, З - западный, СЗ - северо-западный.
Видимость - горизонтальная дальность видимости в метрах или километрах. При видимости от 1 до 10 км при отсутствии осадков обычно наблюдается дымка, при ухудшении видимости до 1 км и менее - туман. В сухую погоду видимость может ухудшаться дымом, пылью или мглою.
Явления - указаны атмосферные явления, наблюдавшиеся в срок или в последний час перед сроком; фигурными скобками обозначены явления, наблюдавшиеся между сроками (за 1-3 часа до срока); квадратными скобками обозначены град или гололедные отложения с указанием их диаметра в мм.
Облачность - указаны через наклонную черту общая и нижняя облачность в баллах и высота нижней границы облаков в метрах; квадратными скобками обозначены формы облаков: Ci - перистые, Cs - перисто-слоистые, Cc - перисто-кучевые, Ac - высококучевые, As - высокослоистые, Sc - слоисто-кучевые, Ns - слоисто-дождевые, Cu - кучевые, Cb - кучево-дождевые. Подробнее классификацию облаков см. в Атласе облаков (PDF).
T - Температура воздуха - температура, измеренная на высоте 2 м над землей.
Td - Температура точки росы - температура, при понижении до которой содержащийся в воздухе водяной пар достигнет насыщения.
f - Относительная влажность воздуха - влажноcть воздуха, измеренная на высоте 2 м над землей.
Te - Эффективная температура - температура, которую ощущает одетый по сезону человек в тени. Характеристика душности погоды. При расчете учитывается влияние влажности воздуха и скорости ветра на теплоощущения человека.
Tes - Эффективная температура на солнце - температура, которую ощущает человек, с поправкой на солнечный нагрев. Характеристика знойности погоды. Зависит от высоты солнца над горизонтом, облачности и скорости ветра. Ночью, в пасмурную погоду, а также при ветре 12 м/с и более поправка равна нулю.
P - Атмосферное давление - приведенное к уровню моря атмосферное давление.
Po - Атмосферное давление - измеренное на уровне метеостанции атмосферное давление.
Tmin - Минимальная температура - минимум температуры воздуха на высоте 2 м над землей.
Tmax - Максимальная температура - максимум температуры воздуха на высоте 2 м над землей.
R - Количество осадков - Количество выпавших осадков за период времени, мм. При наведении курсора мыши на число - период времени, за который выпало указанное количество осадков.
R24 - Количество осадков - Количество выпавших осадков за 24 часа, мм.
S - Снежный покров - Высота снежного покрова, см. При наведении курсора мыши на число - состояние снежного покрова и степень покрытия местности в баллах.